This is the latest recevied weather packets stored in our database for station/object WA1OUI. If no packets are shown the sender has not sent any weather packets the latest 10 day(s).
| Time | Temp. | Humidity | Pressure | Rain* | Wind** | Luminosity | Snow |
|---|---|---|---|---|---|---|---|
| 1777919401 | 22.78° C | 26% | 1006.8 hPa | 0 mm | - | 676 W/m² | - |
| 1777919097 | 22.22° C | 29% | 1006.8 hPa | 0 mm | - | 696 W/m² | - |
| 1777918190 | 22.22° C | 27% | 1007 hPa | 0 mm | - | 198 W/m² | - |
| 1777917889 | 22.22° C | 28% | 1007 hPa | 0 mm | - | 748 W/m² | - |
| 1777917587 | 22.22° C | 32% | 1007.2 hPa | 0 mm | - | 748 W/m² | - |
| 1777917283 | 22.22° C | 28% | 1007.1 hPa | 0 mm | - | 761 W/m² | - |
| 1777916679 | 21.67° C | 27% | 1007.4 hPa | 0 mm | - | 749 W/m² | - |
| 1777916376 | 21.67° C | 26% | 1007.3 hPa | 0 mm | - | 771 W/m² | - |
| 1777916072 | 22.22° C | 28% | 1007.3 hPa | 0 mm | - | 774 W/m² | - |
| 1777915770 | 21.67° C | 30% | 1007.3 hPa | 0 mm | - | 773 W/m² | - |
| 1777915162 | 21.67° C | 28% | 1007.5 hPa | 0 mm | - | 787 W/m² | - |
| 1777914253 | 21.67° C | 25% | 1007.8 hPa | 0 mm | - | 785 W/m² | - |
| 1777913950 | 21.67° C | 26% | 1007.7 hPa | 0 mm | - | 794 W/m² | - |
| 1777912735 | 21.11° C | 32% | 1007.9 hPa | 0 mm | - | 796 W/m² | - |
| 1777912431 | 21.11° C | 29% | 1007.9 hPa | 0 mm | - | 800 W/m² | - |
| 1777912128 | 20.56° C | 29% | 1007.6 hPa | 0 mm | - | 801 W/m² | - |
| 1777911824 | 20.56° C | 29% | 1007.8 hPa | 0 mm | - | 799 W/m² | - |
| 1777911520 | 20.56° C | 27% | 1007.8 hPa | 0 mm | - | 797 W/m² | - |
| 1777911217 | 20.56° C | 30% | 1008 hPa | 0 mm | - | 798 W/m² | - |
| 1777910914 | 20° C | 36% | 1008.1 hPa | 0 mm | - | 796 W/m² | - |
| 1777910611 | 20° C | 29% | 1008.3 hPa | 0 mm | - | 794 W/m² | - |
| 1777910308 | 19.44° C | 30% | 1008.2 hPa | 0 mm | - | 786 W/m² | - |
| 1777909702 | 19.44° C | 30% | 1008.6 hPa | 0 mm | - | 778 W/m² | - |
| 1777909097 | 19.44° C | 29% | 1008.6 hPa | 0 mm | - | 766 W/m² | - |
| 1777908795 | 19.44° C | 32% | 1008.8 hPa | 0 mm | - | 759 W/m² | - |
* Rain latest hour (hover to see other rain measurements)
** Current wind speed in m/s (hover to see current wind gust speed)